Regional Weather Roundup
Issued by NWS

Home | Current Version | Previous Version | Text Only | Print | Product List | Glossary Off
Versions: 1 2 3 4 5 6 7 8 9 10 11 12 13 14 15 16 17 18 19 20 21 22 23 24 25 26 27 28 29 30 31 32 33 34 35 36 37 38 39 40 41 42 43 44 45 46 47 48 49 50

000
ASUS43 KDTX 300801
RWRMI
MICHIGAN HOURLY REGIONAL WEATHER ROUNDUP
NATIONAL WEATHER SERVICE DETROIT/PONTIAC MI
400 AM EDT MON MAY 30 2016

NOTE: "FAIR" INDICATES FEW OR NO CLOUDS BELOW 12,000 FEET WITH NO
SIGNIFICANT WEATHER AND/OR OBSTRUCTION TO VISIBILITY.

MIZ047>049-052>055-059>063-066>070-074>076-081>083-300900-
SOUTHEAST LOWER MICHIGAN

CITY           SKY/WX    TMP DP  RH WIND       PRES   REMARKS
ADRIAN         PTCLDY    61  55  81 W3        30.00S
ALMA           CLEAR     61  57  87 SW5       29.96S
ANN ARBOR      PTCLDY    56  55  97 SW6       29.97S
CARO           CLEAR     60  56  88 CALM      29.94S
DETROIT CITY   CLEAR     66  56  70 W3        29.96S
DETROIT        PTCLDY    63  56  78 S5        29.98R
FLINT          CLEAR     65  56  72 SW6       29.96R
GROSSE ILE     CLEAR     64  57  77 CALM      29.96S
HILLSDALE      PTCLDY    64  54  70 W3        30.01S
HOWELL         CLEAR     61  56  85 W5        29.98S

CITY           SKY/WX    TMP DP  RH WIND       PRES   REMARKS
JACKSON        CLEAR     59  56  89 W7        29.99S
LAMBERTVILLE   CLEAR     59  56  89 CALM      29.99S
LANSING        CLEAR     63  56  78 W6        29.98R
LAPEER         FAIR      63  56  78 SW3       29.96S
MASON          CLEAR     63  56  78 CALM      29.98S
MONROE         PTCLDY    60  58  94 NW5       29.97S
MT. CLEMENS    CLEAR     64  57  77 SW6       29.94F
PONTIAC        CLEAR     63  56  78 W5        29.96S
PORT HOPE        N/A     65  59  81 W7        29.90S
PORT HURON     CLEAR     59  59 100 CALM      29.95S
TRI CITIES     CLEAR     64  58  80 SW6       29.95R
MIDLAND        FAIR      62  57  84 W3        29.94R
TROY           CLEAR     66  56  70 W3        29.98F
SAGINAW HB     CLEAR     63  57  82 SW7       29.94R
$$
MIZ043>046-050>051-056>058-064>065-071>073-077>080-300900-
SOUTHWEST LOWER MICHIGAN

CITY           SKY/WX    TMP DP  RH WIND       PRES   REMARKS
BATTLE CREEK   PTCLDY    61  56  83 W7        30.00S
BENTON HARBOR  CLEAR     63  56  78 W5        29.99S
BIG RAPIDS     CLEAR     62  58  86 W7        29.96R
COLDWATER      CLEAR     59  55  87 SW5       30.00S
FREMONT        FAIR      57  57 100 CALM      29.97S
HOLLAND        PTCLDY    63  56  78 CALM      29.98S
GRAND RAPIDS   CLEAR     62  56  80 W6        29.98S
IONIA          FAIR      61  55  79 W8        29.97S
KALAMAZOO      MOCLDY    60  55  83 SW6       30.00S
LUDINGTON      CLEAR     55  53  96 CALM      29.97S
MARSHALL       CLEAR     62  56  82 CALM      29.99S
MOUNT PLEASANT PTCLDY    63  57  82 W5        29.95R
MUSKEGON       PTCLDY    64  55  72 NW5       29.97S
SOUTH HAVEN    CLEAR     65  57  74 W3        29.99S
$$
MIZ016>042-300900-
NORTHERN LOWER MICHIGAN

CITY           SKY/WX    TMP DP  RH WIND       PRES   REMARKS
ALPENA         MOCLDY    63  58  83 W3        29.88S
BEAVER ISLAND  CLEAR     53  52  97 W7        29.91R
BELLAIRE       CLEAR     60  56  87 SW3       29.93R
CADILLAC       CLEAR     58  55  89 CALM      29.96R
CHARLEVOIX     PTCLDY    59  56  89 W13G20    29.94S
FRANKFORT      PTCLDY    52  52  98 CALM      29.95S
GAYLORD        PTCLDY    60  56  86 W9        29.92S
GRAYLING       CLEAR     60  58  92 W6        29.94S
HARBOR SPRINGS MOCLDY    55  53  94 W6        29.91R
HOUGHTON LAKE  CLEAR     62  58  86 NW10      29.94S
OSCODA         MOCLDY    63  58  83 SW6       29.90R
PELLSTON       MOCLDY    59  55  87 W6        29.90R
ROGERS CITY    PTCLDY    62  56  83 W3        29.89R
TRAVERSE CITY  CLEAR     62  58  86 CALM      29.92R
$$
MIZ007>008-015-300900-
EASTERN UPPER MICHIGAN

CITY           SKY/WX    TMP DP  RH WIND       PRES   REMARKS
KINROSS          N/A     55  55 100 SW5       29.85S
MACKINAC ISLAN MOCLDY    56  56 100 W9        29.87S
NEWBERRY       CLOUDY    59  56  91 W7        29.87R
S. S. MARIE    CLOUDY    58  56  93 W9        29.83S
MUNISING         N/A     60  54  80 SW5       29.88R
$$
MIZ004>006-011>014-085-300900-
CENTRAL UPPER MICHIGAN

CITY           SKY/WX    TMP DP  RH WIND       PRES   REMARKS
MANISTIQUE     CLEAR     58  57  97 SW3       29.89R
ESCANABA       CLEAR     55  54  94 W6        29.92S
MENOMINEE      CLEAR     59  57  93 CALM      29.94
SAWYER-GWINN   CLEAR     53  51  95 W6        29.92R
$$
MIZ001>003-009>011-084-300900-
WESTERN UPPER MICHIGAN

CITY           SKY/WX    TMP DP  RH WIND       PRES   REMARKS
IRON MOUNTAIN  CLEAR     54  52  93 CALM      29.93S
HOUGHTON       CLEAR     54  51  90 W7        29.88R
COPPER HARBOR    N/A     59  53  80 VRB6      29.84S
IRONWOOD       MOCLDY    54  52  94 W6        29.92R
$$

ABBREVIATIONS USED IN REMARKS
   TC - TEMPERATURE IN CELSIUS
  WCI - WIND CHILL INDEX
   HX - HEAT INDEX
  VSB - VISIBILITY





USA.gov is the U.S. government's official web portal to all federal, state and local government web resources and services.